sat.trackr.live / text

‹ back to catalog

STARLINK-34780

NORAD 65074 · 2025-165U

PAYLOAD ACTIVE UNKNOWN

§ Identity

Operator
Country
US
Launch date
2025-07-31
Launch site
AFWTR
Launch vehicle
Mass (kg)
RCS (m²)

Purposes: comms

External: N2YO · Heavens-Above · Gunter

§ Orbital elements

Epoch: 2026-05-25T03:36:33.428160Z

Period
95.64 min
Inclination
97.4521°
Eccentricity
0.0001846
Mean motion
15.05620259 rev/d
Perigee alt
548.3 km
Apogee alt
550.9 km
Semi-major
6,927.7 km
B*
-9.7706e-4
RAAN
222.1989°
Arg perigee
215.6641°
Mean anomaly
144.4463°
Rev number
4,629

§ Raw data

STARLINK-347801 65074U 25165U   26145.15038690 -.00014117  00000+0 -97706-3 0  99982 65074  97.4521 222.1989 0001846 215.6641 144.4463 15.05620259 46291

JSON: /api/v1/satellites/65074 · /tle

For live sub-satellite position, see the globe view (requires WebGL).

§ Visibility from observer

Set your observer location to see the next 7 days of passes ≥ 10°. The values pass through the URL so the page stays shareable.

No JS? Fill the form by hand. The geolocation button needs JavaScript.